Weather History for Traverse City, MI

Change the Weather History Date:

Sunday, March 3, 2013

  Actual Average Record
Temperature  
Mean Temperature 18 °F 26 °F  
Max Temperature 26 °F 35 °F 64 °F (1974)
Min Temperature 10 °F 18 °F -30 °F (1943)
Degree Days  
Heating Degree Days 47 39  
Month to date heating degree days 133 117  
Since 1 July heating degree days 4979 5457  
Cooling Degree Days 0 0  
Month to date cooling degree days 0 0  
Year to date cooling degree days 0 0  
Moisture  
Dew Point 12 °F    
Average Humidity 70    
Maximum Humidity 80    
Minimum Humidity 60    
Precipitation  
Precipitation T in 0.05 in 1.02 in (1983)
Month to date precipitation T 0.17  
Year to date precipitation 3.54 4.49  
Snow  
Snow 0.00 in - - ()
Snow Depth 8.00 in    
Sea Level Pressure  
Sea Level Pressure 30.09 in    
Wind  
Wind Speed 6 mph (NNW)    
Max Wind Speed 14 mph    
Max Gust Speed 18 mph    
Visibility 10 miles    
Events Snow    
T = Trace of Precipitation, MM = Missing Value Source: NWS Daily Summary

Daily Weather History Graph

Daily Weather History Graph

Search for Another Location

Airport:

Trip Planner

Search our weather history database for the weather conditions in past years. The results will help you decide how hot, cold, wet, or windy it might be!

Date:

Astronomy

Mar. 03, 2013 Rise Set
Actual Time 7:15 AM EST 6:33 PM EST
Civil Twilight 6:46 AM EST 7:02 PM EST
Nautical Twilight 6:12 AM EST 7:36 PM EST
Astronomical Twilight 5:39 AM EST 8:10 PM EST
Moon 12:26 AM EST (3/3) 10:14 AM EST (3/3)
Length of Visible Light 12h 15m
Length of Day
11h 17m
Waning Gibbous, 64% of the Moon is Illuminated
Mar 3
Waning Gibbous
Mar 4
Last Quarter
Mar 11
New
Mar 19
First Quarter
Mar 27
Full

Hourly Weather History & Observations

Time (EST) Temp. Windchill Dew Point Humidity Pressure Visibility Wind Dir Wind Speed Gust Speed Precip Events Conditions
12:53 AM 23.0 °F 13.1 °F 12.0 °F 63% 30.12 in 10.0 mi NNW 9.2 mph - N/A   Overcast
1:20 AM 21.2 °F 11.7 °F 10.4 °F 63% 30.08 in 10.0 mi North 8.1 mph - N/A   Partly Cloudy
1:53 AM 21.9 °F 15.7 °F 10.9 °F 63% 30.11 in 10.0 mi North 4.6 mph - N/A   Partly Cloudy
2:53 AM 17.1 °F - 10.0 °F 74% 30.09 in 10.0 mi Calm Calm - N/A   Clear
3:53 AM 21.0 °F 16.2 °F 10.9 °F 65% 30.08 in 10.0 mi Variable 3.5 mph - N/A   Clear
4:53 AM 14.0 °F - 9.0 °F 80% 30.08 in 10.0 mi Calm Calm - N/A   Clear
5:53 AM 12.0 °F - 7.0 °F 80% 30.08 in 10.0 mi Calm Calm - N/A   Partly Cloudy
6:13 AM 15.8 °F 5.1 °F 8.6 °F 73% 30.04 in 10.0 mi North 8.1 mph - N/A   Mostly Cloudy
6:53 AM 21.9 °F 11.0 °F 12.9 °F 68% 30.08 in 10.0 mi NNW 10.4 mph - N/A   Mostly Cloudy
7:53 AM 21.0 °F 9.9 °F 12.0 °F 68% 30.10 in 10.0 mi NNW 10.4 mph - N/A   Overcast
8:53 AM 21.0 °F 9.3 °F 12.9 °F 71% 30.10 in 10.0 mi North 11.5 mph - N/A   Overcast
9:53 AM 21.0 °F 12.4 °F 12.9 °F 71% 30.10 in 10.0 mi North 6.9 mph - N/A   Overcast
10:53 AM 21.9 °F 12.5 °F 15.1 °F 75% 30.10 in 10.0 mi NNE 8.1 mph - N/A   Overcast
11:53 AM 21.9 °F 13.4 °F 16.0 °F 78% 30.10 in 10.0 mi NNE 6.9 mph - N/A   Overcast
12:53 PM 21.9 °F 14.5 °F 15.1 °F 75% 30.09 in 10.0 mi NNE 5.8 mph - N/A   Overcast
1:53 PM 24.1 °F 19.7 °F 15.1 °F 69% 30.07 in 10.0 mi North 3.5 mph - N/A   Overcast
2:53 PM 25.0 °F 19.3 °F 15.1 °F 66% 30.07 in 10.0 mi NNW 4.6 mph - N/A   Overcast
3:53 PM 25.0 °F 17.1 °F 14.0 °F 63% 30.07 in 10.0 mi NW 6.9 mph - N/A   Overcast
4:53 PM 25.0 °F 14.2 °F 14.0 °F 63% 30.08 in 9.0 mi NW 11.5 mph - 0.00 in Snow Light Snow
5:53 PM 25.0 °F 15.5 °F 12.9 °F 60% 30.09 in 10.0 mi WNW 9.2 mph - 0.00 in   Mostly Cloudy
6:21 PM 24.8 °F 16.9 °F 12.2 °F 59% 30.05 in 10.0 mi NNW 6.9 mph - N/A   Scattered Clouds
6:53 PM 24.1 °F 15.2 °F 12.9 °F 62% 30.09 in 10.0 mi NNW 8.1 mph - N/A   Scattered Clouds
7:53 PM 19.0 °F 12.3 °F 10.9 °F 71% 30.09 in 10.0 mi West 4.6 mph - N/A   Scattered Clouds
8:53 PM 18.0 °F - 10.9 °F 74% 30.09 in 10.0 mi Calm Calm - N/A   Partly Cloudy
9:39 PM 14.0 °F - 8.6 °F 79% 30.07 in 10.0 mi Calm Calm - N/A   Mostly Cloudy
9:53 PM 17.1 °F 10.0 °F 10.9 °F 77% 30.10 in 10.0 mi West 4.6 mph - N/A   Overcast
10:53 PM 23.0 °F 12.4 °F 14.0 °F 68% 30.10 in 10.0 mi North 10.4 mph - N/A   Overcast
11:53 PM 21.9 °F 11.7 °F 14.0 °F 72% 30.11 in 10.0 mi NNE 9.2 mph - N/A   Overcast